ANTARES R/B

Last updated on March 2, 2021, 12:02 a.m. UTC

1 47690U 21013B   21060.31897094  .18101689  12336-4  29026-3 0  9998
2 47690  51.6198 151.8890 0015286 182.8833 286.2960 16.46916191  1384

Satellite is not in orbit.